ROA235 SCEL-SCQP

Flight info

Callsign ROA235
Flight time 1h 0m
Altitude 35000
Route ANGOD6C ANGOD UQ803 SUMKO SUMKO4G
Aircraft A321/M-SDE3FGHIRWY/LB1

Departure

Time 2026-04-24 14:09
Airport Comodoro Arturo Merino Benítez International Airport (SCEL)

Arrival

Time 2026-04-24 15:09
Airport La Araucanía International Airport (SCQP)
Time Latitude Longitude Altitude Speed Heading
2026-04-24 13:22 -33.39597 -70.79697 1565 ft 0 kts 178°
2026-04-24 13:51 -33.39575 -70.79698 1564 ft 3 kts 178°
2026-04-24 13:52 -33.39555 -70.79699 1564 ft 3 kts 181°
2026-04-24 13:52 -33.39534 -70.79695 1564 ft 3 kts 212°
2026-04-24 13:52 -33.39519 -70.79677 1564 ft 3 kts 250°
2026-04-24 13:52 -33.39515 -70.79651 1564 ft 3 kts 270°
2026-04-24 13:53 -33.39516 -70.79624 1564 ft 3 kts 275°
2026-04-24 13:53 -33.39517 -70.79599 1564 ft 1 kts 267°
2026-04-24 13:53 -33.39517 -70.79598 1564 ft 0 kts 267°
2026-04-24 14:00 -33.39518 -70.79604 1564 ft 2 kts 267°
2026-04-24 14:00 -33.39519 -70.79626 1564 ft 4 kts 266°
2026-04-24 14:00 -33.39521 -70.79667 1564 ft 6 kts 267°
2026-04-24 14:00 -33.39523 -70.79730 1565 ft 9 kts 267°
2026-04-24 14:01 -33.39526 -70.79815 1565 ft 12 kts 268°
2026-04-24 14:01 -33.39529 -70.79892 1565 ft 9 kts 268°
2026-04-24 14:01 -33.39491 -70.79943 1569 ft 10 kts 352°
2026-04-24 14:01 -33.39408 -70.79948 1565 ft 13 kts 357°
2026-04-24 14:02 -33.39304 -70.79953 1565 ft 16 kts 357°
2026-04-24 14:02 -33.39180 -70.79960 1565 ft 19 kts 358°
2026-04-24 14:02 -33.39035 -70.79968 1565 ft 22 kts 356°
2026-04-24 14:02 -33.38895 -70.79975 1565 ft 11 kts 357°
2026-04-24 14:03 -33.38810 -70.79980 1565 ft 14 kts 357°
2026-04-24 14:03 -33.38705 -70.79985 1565 ft 17 kts 357°
2026-04-24 14:03 -33.38579 -70.79992 1565 ft 20 kts 358°
2026-04-24 14:03 -33.38432 -70.80000 1565 ft 23 kts 357°
2026-04-24 14:04 -33.38278 -70.80009 1565 ft 19 kts 358°
2026-04-24 14:04 -33.38165 -70.80015 1565 ft 15 kts 356°
2026-04-24 14:04 -33.38100 -70.80037 1565 ft 9 kts 301°
2026-04-24 14:04 -33.38085 -70.80112 1566 ft 9 kts 319°
2026-04-24 14:05 -33.38016 -70.80126 1566 ft 12 kts 356°
2026-04-24 14:05 -33.37923 -70.80131 1566 ft 15 kts 357°
2026-04-24 14:05 -33.37809 -70.80137 1566 ft 18 kts 358°
2026-04-24 14:05 -33.37677 -70.80144 1566 ft 21 kts 357°
2026-04-24 14:06 -33.37537 -70.80151 1566 ft 17 kts 357°
2026-04-24 14:06 -33.37447 -70.80156 1567 ft 11 kts 358°
2026-04-24 14:06 -33.37365 -70.80160 1567 ft 13 kts 358°
2026-04-24 14:06 -33.37266 -70.80165 1567 ft 16 kts 357°
2026-04-24 14:07 -33.37194 -70.80169 1567 ft 8 kts 357°
2026-04-24 14:07 -33.37131 -70.80193 1567 ft 11 kts 324°
2026-04-24 14:07 -33.37104 -70.80271 1571 ft 10 kts 270°
2026-04-24 14:07 -33.37120 -70.80336 1574 ft 7 kts 238°
2026-04-24 14:08 -33.37168 -70.80374 1574 ft 10 kts 193°
2026-04-24 14:08 -33.37305 -70.80367 1573 ft 41 kts 177°
2026-04-24 14:08 -33.37828 -70.80340 1573 ft 106 kts 177°
2026-04-24 14:08 -33.38746 -70.80291 1575 ft 156 kts 177°
2026-04-24 14:09 -33.39926 -70.80232 1788 ft 177 kts 178°
2026-04-24 14:09 -33.41173 -70.80178 2326 ft 186 kts 178°
2026-04-24 14:09 -33.42547 -70.80110 2524 ft 208 kts 178°
2026-04-24 14:09 -33.44071 -70.80028 2722 ft 231 kts 177°
2026-04-24 14:10 -33.45182 -70.79963 2840 ft 250 kts 177°
2026-04-24 14:10 -33.47580 -70.79822 3820 ft 261 kts 177°
2026-04-24 14:10 -33.49418 -70.79711 4570 ft 268 kts 176°
2026-04-24 14:10 -33.51300 -70.79610 5349 ft 273 kts 177°
2026-04-24 14:11 -33.53214 -70.79514 6114 ft 278 kts 178°
2026-04-24 14:11 -33.55140 -70.79412 6876 ft 283 kts 178°
2026-04-24 14:11 -33.59140 -70.79312 8294 ft 293 kts 188°
2026-04-24 14:12 -33.61133 -70.79859 9019 ft 297 kts 197°
2026-04-24 14:12 -33.63144 -70.80506 9769 ft 301 kts 197°
2026-04-24 14:12 -33.65188 -70.81144 10418 ft 309 kts 196°
2026-04-24 14:12 -33.67347 -70.81811 10647 ft 332 kts 196°
2026-04-24 14:13 -33.69651 -70.82525 10959 ft 349 kts 196°
2026-04-24 14:13 -33.72021 -70.83260 11596 ft 354 kts 196°
2026-04-24 14:13 -33.74415 -70.84001 12371 ft 356 kts 197°
2026-04-24 14:13 -33.76794 -70.84740 13133 ft 358 kts 197°
2026-04-24 14:14 -33.79217 -70.85492 13866 ft 361 kts 197°
2026-04-24 14:14 -33.81656 -70.86251 14556 ft 363 kts 197°
2026-04-24 14:14 -33.86573 -70.87789 15916 ft 367 kts 198°
2026-04-24 14:15 -33.89051 -70.88565 16654 ft 367 kts 198°
2026-04-24 14:15 -33.91528 -70.89339 17362 ft 369 kts 198°
2026-04-24 14:15 -33.94015 -70.90114 18020 ft 370 kts 198°
2026-04-24 14:15 -33.96519 -70.90894 18612 ft 373 kts 198°
2026-04-24 14:16 -33.99041 -70.91681 19147 ft 376 kts 198°
2026-04-24 14:16 -34.01553 -70.92465 19712 ft 378 kts 199°
2026-04-24 14:16 -34.04129 -70.93228 20271 ft 382 kts 198°
2026-04-24 14:17 -34.09358 -70.94643 21373 ft 387 kts 197°
2026-04-24 14:17 -34.12006 -70.95339 21919 ft 390 kts 197°
2026-04-24 14:17 -34.17317 -70.96758 22998 ft 395 kts 198°
2026-04-24 14:18 -34.20018 -70.97490 23518 ft 398 kts 198°
2026-04-24 14:18 -34.22727 -70.98227 23982 ft 401 kts 198°
2026-04-24 14:18 -34.25457 -70.98972 24423 ft 403 kts 198°
2026-04-24 14:18 -34.28198 -70.99722 24831 ft 405 kts 198°
2026-04-24 14:19 -34.30056 -71.00230 25117 ft 406 kts 199°
2026-04-24 14:19 -34.33717 -71.01235 25660 ft 408 kts 199°
2026-04-24 14:19 -34.36495 -71.01999 26084 ft 410 kts 199°
2026-04-24 14:19 -34.39288 -71.02763 26495 ft 412 kts 199°
2026-04-24 14:20 -34.42092 -71.03527 26874 ft 414 kts 199°
2026-04-24 14:20 -34.44909 -71.04293 27256 ft 415 kts 199°
2026-04-24 14:20 -34.47733 -71.05064 27655 ft 417 kts 199°
2026-04-24 14:20 -34.50571 -71.05846 28050 ft 419 kts 200°
2026-04-24 14:21 -34.53384 -71.06625 28403 ft 421 kts 200°
2026-04-24 14:21 -34.56250 -71.07417 28755 ft 423 kts 200°
2026-04-24 14:21 -34.59125 -71.08210 29112 ft 425 kts 200°
2026-04-24 14:21 -34.62024 -71.09006 29481 ft 427 kts 200°
2026-04-24 14:22 -34.64929 -71.09802 29827 ft 429 kts 200°
2026-04-24 14:22 -34.67858 -71.10604 30167 ft 430 kts 200°
2026-04-24 14:22 -34.73694 -71.12206 30705 ft 435 kts 200°
2026-04-24 14:23 -34.76666 -71.12975 31036 ft 437 kts 199°
2026-04-24 14:23 -34.79655 -71.13703 31320 ft 439 kts 199°
2026-04-24 14:23 -34.82655 -71.14404 31701 ft 439 kts 199°
2026-04-24 14:23 -34.85652 -71.15098 32122 ft 437 kts 199°
2026-04-24 14:24 -34.88638 -71.15799 32550 ft 435 kts 199°
2026-04-24 14:24 -34.91611 -71.16509 32961 ft 434 kts 199°
2026-04-24 14:24 -34.94535 -71.17218 33374 ft 433 kts 200°
2026-04-24 14:24 -34.97486 -71.17939 33780 ft 431 kts 200°
2026-04-24 14:25 -34.99435 -71.18418 34039 ft 431 kts 200°
2026-04-24 14:25 -35.03373 -71.19387 34491 ft 430 kts 200°
2026-04-24 14:25 -35.06307 -71.20105 34796 ft 430 kts 200°
2026-04-24 14:25 -35.09241 -71.20821 35080 ft 430 kts 200°
2026-04-24 14:26 -35.12177 -71.21539 35252 ft 431 kts 200°
2026-04-24 14:26 -35.17973 -71.22954 35286 ft 425 kts 200°
2026-04-24 14:27 -35.23775 -71.24382 35296 ft 425 kts 200°
2026-04-24 14:27 -35.28595 -71.25571 35289 ft 425 kts 200°
2026-04-24 14:28 -35.34406 -71.26996 35290 ft 426 kts 200°
2026-04-24 14:28 -35.40220 -71.28424 35285 ft 426 kts 200°
2026-04-24 14:29 -35.46037 -71.29860 35301 ft 426 kts 200°
2026-04-24 14:29 -35.51849 -71.31289 35318 ft 426 kts 200°
2026-04-24 14:30 -35.57663 -71.32735 35305 ft 426 kts 200°
2026-04-24 14:30 -35.63444 -71.34172 35296 ft 427 kts 200°
2026-04-24 14:31 -35.69268 -71.35625 35299 ft 427 kts 200°
2026-04-24 14:31 -35.75096 -71.37078 35297 ft 427 kts 200°
2026-04-24 14:32 -35.80928 -71.38528 35303 ft 427 kts 200°
2026-04-24 14:32 -35.86758 -71.39981 35292 ft 427 kts 200°
2026-04-24 14:33 -35.92594 -71.41434 35288 ft 428 kts 200°
2026-04-24 14:33 -35.98394 -71.42874 35280 ft 428 kts 200°
2026-04-24 14:34 -36.04228 -71.44335 35296 ft 427 kts 200°
2026-04-24 14:34 -36.10060 -71.45801 35289 ft 428 kts 200°
2026-04-24 14:35 -36.15895 -71.47278 35282 ft 428 kts 200°
2026-04-24 14:35 -36.21729 -71.48756 35265 ft 427 kts 199°
2026-04-24 14:36 -36.27571 -71.50228 35280 ft 429 kts 199°
2026-04-24 14:36 -36.33383 -71.51689 35278 ft 429 kts 199°
2026-04-24 14:37 -36.39231 -71.53169 35269 ft 428 kts 199°
2026-04-24 14:37 -36.45071 -71.54659 35267 ft 428 kts 199°
2026-04-24 14:38 -36.50915 -71.56140 35302 ft 429 kts 199°
2026-04-24 14:38 -36.56766 -71.57621 35294 ft 429 kts 199°
2026-04-24 14:39 -36.62579 -71.59099 35274 ft 429 kts 199°
2026-04-24 14:39 -36.68428 -71.60594 35269 ft 429 kts 199°
2026-04-24 14:40 -36.74280 -71.62095 35282 ft 429 kts 199°
2026-04-24 14:40 -36.80135 -71.63591 35278 ft 429 kts 198°
2026-04-24 14:41 -36.85992 -71.65092 35282 ft 429 kts 198°
2026-04-24 14:41 -36.91849 -71.66595 35271 ft 429 kts 198°
2026-04-24 14:42 -36.97665 -71.68088 35280 ft 429 kts 198°
2026-04-24 14:42 -37.03518 -71.69592 35298 ft 429 kts 198°
2026-04-24 14:43 -37.09372 -71.71104 35299 ft 429 kts 198°
2026-04-24 14:43 -37.15183 -71.72605 35293 ft 429 kts 198°
2026-04-24 14:43 -37.18114 -71.73363 34653 ft 434 kts 198°
2026-04-24 14:44 -37.21107 -71.74145 33813 ft 441 kts 198°
2026-04-24 14:44 -37.24102 -71.74923 33290 ft 438 kts 198°
2026-04-24 14:44 -37.27082 -71.75690 32733 ft 437 kts 197°
2026-04-24 14:44 -37.30054 -71.76451 32192 ft 435 kts 197°
2026-04-24 14:45 -37.33010 -71.77210 31659 ft 432 kts 197°
2026-04-24 14:45 -37.35954 -71.77971 31125 ft 430 kts 198°
2026-04-24 14:45 -37.38879 -71.78730 30603 ft 428 kts 197°
2026-04-24 14:45 -37.41796 -71.79489 30031 ft 427 kts 197°
2026-04-24 14:46 -37.44703 -71.80245 29481 ft 424 kts 197°
2026-04-24 14:46 -37.47572 -71.80991 28997 ft 420 kts 197°
2026-04-24 14:46 -37.50422 -71.81736 28487 ft 416 kts 197°
2026-04-24 14:46 -37.53248 -71.82476 27991 ft 413 kts 197°
2026-04-24 14:47 -37.56013 -71.83200 27507 ft 410 kts 197°
2026-04-24 14:47 -37.58830 -71.83937 27026 ft 407 kts 197°
2026-04-24 14:47 -37.61559 -71.84652 26566 ft 404 kts 197°
2026-04-24 14:47 -37.64303 -71.85372 26107 ft 400 kts 197°
2026-04-24 14:48 -37.67019 -71.86084 25658 ft 397 kts 197°
2026-04-24 14:48 -37.69711 -71.86790 25196 ft 393 kts 198°
2026-04-24 14:48 -37.72296 -71.87784 24748 ft 385 kts 206°
2026-04-24 14:48 -37.74795 -71.88986 24273 ft 383 kts 205°
2026-04-24 14:49 -37.77281 -71.90171 23917 ft 378 kts 206°
2026-04-24 14:49 -37.79707 -71.91366 23644 ft 369 kts 206°
2026-04-24 14:49 -37.82048 -71.92542 23373 ft 364 kts 206°
2026-04-24 14:49 -37.84395 -71.93735 23094 ft 361 kts 206°
2026-04-24 14:50 -37.86721 -71.94921 22818 ft 360 kts 206°
2026-04-24 14:50 -37.89037 -71.96099 22556 ft 358 kts 206°
2026-04-24 14:50 -37.91348 -71.97271 22289 ft 357 kts 206°
2026-04-24 14:50 -37.93652 -71.98431 22032 ft 356 kts 206°
2026-04-24 14:51 -37.95950 -71.99587 21785 ft 354 kts 206°
2026-04-24 14:51 -37.98234 -72.00739 21530 ft 353 kts 206°
2026-04-24 14:51 -38.00510 -72.01890 21271 ft 352 kts 206°
2026-04-24 14:51 -38.02780 -72.03034 21008 ft 350 kts 206°
2026-04-24 14:52 -38.05015 -72.04161 20763 ft 349 kts 206°
2026-04-24 14:52 -38.07266 -72.05298 20511 ft 348 kts 206°
2026-04-24 14:52 -38.09510 -72.06431 20266 ft 346 kts 206°
2026-04-24 14:52 -38.11709 -72.07545 20021 ft 345 kts 206°
2026-04-24 14:53 -38.13936 -72.08674 19787 ft 344 kts 206°
2026-04-24 14:53 -38.16160 -72.09803 19537 ft 343 kts 206°
2026-04-24 14:53 -38.18372 -72.10927 19296 ft 342 kts 206°
2026-04-24 14:53 -38.20577 -72.12044 19070 ft 340 kts 206°
2026-04-24 14:54 -38.22775 -72.13159 18831 ft 339 kts 206°
2026-04-24 14:54 -38.24966 -72.14269 18589 ft 338 kts 206°
2026-04-24 14:54 -38.27118 -72.15361 18332 ft 337 kts 206°
2026-04-24 14:54 -38.29291 -72.16462 18071 ft 335 kts 206°
2026-04-24 14:55 -38.30754 -72.17205 17875 ft 334 kts 206°
2026-04-24 14:55 -38.33605 -72.18660 17504 ft 330 kts 206°
2026-04-24 14:55 -38.35728 -72.19747 17108 ft 328 kts 206°
2026-04-24 14:55 -38.37839 -72.20830 16697 ft 326 kts 206°
2026-04-24 14:56 -38.39945 -72.21909 16285 ft 326 kts 206°
2026-04-24 14:56 -38.42045 -72.22984 15883 ft 325 kts 206°
2026-04-24 14:56 -38.44143 -72.24058 15492 ft 324 kts 206°
2026-04-24 14:56 -38.46239 -72.25136 15058 ft 324 kts 207°
2026-04-24 14:57 -38.48304 -72.26202 14647 ft 324 kts 206°
2026-04-24 14:57 -38.50396 -72.27282 14234 ft 324 kts 206°
2026-04-24 14:57 -38.52483 -72.28358 13794 ft 323 kts 206°
2026-04-24 14:57 -38.54569 -72.29430 13367 ft 322 kts 206°
2026-04-24 14:58 -38.56646 -72.30496 12943 ft 321 kts 206°
2026-04-24 14:58 -38.58713 -72.31557 12525 ft 320 kts 206°
2026-04-24 14:58 -38.60775 -72.32621 12107 ft 318 kts 206°
2026-04-24 14:58 -38.62825 -72.33681 11684 ft 318 kts 206°
2026-04-24 14:59 -38.64876 -72.34739 11247 ft 317 kts 206°
2026-04-24 14:59 -38.66929 -72.35800 10625 ft 322 kts 206°
2026-04-24 14:59 -38.68989 -72.36863 10383 ft 315 kts 206°
2026-04-24 14:59 -38.70983 -72.37890 10267 ft 301 kts 206°
2026-04-24 15:00 -38.72871 -72.38859 10135 ft 284 kts 206°
2026-04-24 15:00 -38.74666 -72.39785 9780 ft 275 kts 206°
2026-04-24 15:00 -38.76431 -72.40700 9241 ft 273 kts 206°
2026-04-24 15:00 -38.78167 -72.41603 8679 ft 273 kts 206°
2026-04-24 15:01 -38.79923 -72.42517 8184 ft 270 kts 206°
2026-04-24 15:01 -38.81670 -72.43424 7646 ft 270 kts 205°
2026-04-24 15:01 -38.83404 -72.44324 7184 ft 267 kts 205°
2026-04-24 15:01 -38.85124 -72.45218 6722 ft 265 kts 205°
2026-04-24 15:02 -38.86830 -72.46103 6243 ft 263 kts 205°
2026-04-24 15:02 -38.88517 -72.46991 5786 ft 261 kts 207°
2026-04-24 15:02 -38.90077 -72.48153 5339 ft 258 kts 214°
2026-04-24 15:02 -38.91591 -72.49377 4895 ft 258 kts 214°
2026-04-24 15:03 -38.92606 -72.50194 4595 ft 261 kts 214°
2026-04-24 15:03 -38.94623 -72.51814 4293 ft 249 kts 214°
2026-04-24 15:03 -38.96043 -72.52948 4197 ft 233 kts 214°
2026-04-24 15:03 -38.97389 -72.54022 4122 ft 220 kts 214°
2026-04-24 15:04 -38.98656 -72.55031 4015 ft 211 kts 214°
2026-04-24 15:04 -38.99888 -72.56015 3922 ft 203 kts 215°
2026-04-24 15:04 -39.01047 -72.56943 3837 ft 189 kts 215°
2026-04-24 15:04 -39.02138 -72.57818 3742 ft 181 kts 215°
2026-04-24 15:05 -39.03122 -72.58758 3568 ft 174 kts 228°
2026-04-24 15:05 -39.03832 -72.59984 3323 ft 168 kts 244°
2026-04-24 15:05 -39.04230 -72.61354 3105 ft 164 kts 258°
2026-04-24 15:05 -39.04329 -72.62793 2896 ft 160 kts 272°
2026-04-24 15:06 -39.04135 -72.64199 2678 ft 160 kts 287°
2026-04-24 15:06 -39.03663 -72.65492 2475 ft 162 kts 301°
2026-04-24 15:06 -39.02914 -72.66607 2255 ft 168 kts 317°
2026-04-24 15:06 -39.01949 -72.67414 2040 ft 162 kts 333°
2026-04-24 15:07 -39.00913 -72.67837 1826 ft 152 kts 347°
2026-04-24 15:07 -38.99874 -72.67911 1619 ft 148 kts
2026-04-24 15:07 -38.98869 -72.67657 1427 ft 147 kts 16°
2026-04-24 15:07 -38.97900 -72.67265 1228 ft 145 kts 15°
2026-04-24 15:08 -38.96940 -72.66886 1036 ft 144 kts 16°
2026-04-24 15:08 -38.95986 -72.66492 855 ft 143 kts 17°
2026-04-24 15:08 -38.95040 -72.66111 644 ft 141 kts 15°
2026-04-24 15:08 -38.94096 -72.65751 452 ft 141 kts 17°
2026-04-24 15:09 -38.93175 -72.65399 319 ft 133 kts 16°
2026-04-24 15:09 -38.92469 -72.65113 314 ft 65 kts 17°
2026-04-24 15:09 -38.92237 -72.65023 313 ft 11 kts 17°
2026-04-24 15:09 -38.92174 -72.64971 314 ft 6 kts 59°
2026-04-24 15:10 -38.92174 -72.64914 315 ft 7 kts 102°
2026-04-24 15:10 -38.92192 -72.64838 314 ft 10 kts 108°
2026-04-24 15:10 -38.92231 -72.64830 313 ft 8 kts 200°
2026-04-24 15:10 -38.92280 -72.64871 313 ft 8 kts 256°
2026-04-24 15:11 -38.92260 -72.64932 314 ft 11 kts 288°
2026-04-24 15:11 -38.92267 -72.65028 314 ft 13 kts 219°
2026-04-24 15:11 -38.92347 -72.65015 314 ft 11 kts 136°
2026-04-24 15:11 -38.92381 -72.64917 312 ft 14 kts 107°
2026-04-24 15:12 -38.92402 -72.64838 313 ft 9 kts 112°
2026-04-24 15:12 -38.92536 -72.64822 313 ft 14 kts 198°
2026-04-24 15:12 -38.92631 -72.64862 313 ft 10 kts 197°
2026-04-24 15:13 -38.92668 -72.64871 311 ft 3 kts 166°
2026-04-24 15:13 -38.92684 -72.64842 313 ft 5 kts 115°
2026-04-24 15:13 -38.92697 -72.64796 313 ft 4 kts 107°
2026-04-24 15:13 -38.92702 -72.64774 313 ft 0 kts 107°